[[{"header":{"parameterUnit":"m.s-1","parameterCategory":1,"la1":30.2991,"la2":30.254,"lo1":-89.0895,"lo2":-89.0444,"dy":0.0017,"dx":0.0017,"nx":28,"ny":28,"refTime":"2024-05-18T03:00:00:Z","depth":0,"parameterNumber":2,"parameterNumberName":"U-component_of_WINDS"},"data":[0,0,0,0,0,0,0,0,0,0,0,0,0,0,0,0,0,0,0,0,0,0,0,0,0,0,0,0,0,0,0,0,0,0,0,0,0,0,0,0,0,0,0,0,0,0,0,0,0,0,0,0,0,0,0,0,0,0,1.8748,1.875,0,1.8951,1.8953,1.8956,1.8984,1.8982,1.898,1.8978,1.919,1.9197,1.9204,0,0,0,0,0,0,0,0,0,0,0,0,0,1.8387,1.8394,1.8747,1.875,1.8753,1.8951,1.8954,1.8956,1.8984,1.8982,1.8979,1.8977,1.9187,1.9196,1.9205,0,0,0,0,0,0,0,0,0,0,0,0,0,1.8563,1.8396,1.8747,1.879,1.8796,1.895,1.8954,1.8957,1.8984,1.8982,1.8979,1.8976,1.9185,1.9195,1.9206,1.9333,0,0,1.924,1.9245,0,0,0,0,0,0,0,0,1.8553,1.8576,1.8781,1.8787,1.8794,1.8939,1.8904,1.9083,1.8985,1.8913,1.8978,1.8975,1.9109,1.9126,1.9171,1.9343,1.9352,1.9241,1.9248,1.9253,1.9256,0,0,0,0,0,0,0,1.8541,1.8567,1.8828,1.8784,1.8792,1.8801,1.8823,1.8938,1.9025,1.8919,1.8922,1.8945,1.9112,1.916,1.9176,1.9355,1.9241,1.9251,1.9258,1.9262,1.9643,1.9647,0,0,0,0,0,0,1.852,1.8557,1.8822,1.8834,1.8664,1.881,1.8834,1.8895,1.9024,1.904,1.8947,1.8946,1.9142,1.9163,1.9183,1.9341,1.9253,1.9263,1.927,1.964,1.9644,1.9648,0,0,0,0,0,0,1.8512,1.8543,1.8813,1.8696,1.8731,1.8819,1.8888,1.8901,1.8949,1.9045,1.9061,1.898,1.9141,1.9168,1.9296,1.9349,1.9268,1.9278,1.9636,1.9641,1.9646,1.9656,0,0,0,0,0,0,1.8502,1.854,1.8588,1.8697,1.8738,1.8921,1.8891,1.8907,1.8968,1.8967,1.908,1.9096,1.9141,1.9279,1.9307,1.9363,1.9287,1.9632,1.9638,1.9644,1.9652,1.9661,1.967,0,0,0,0,0,1.8489,1.8583,1.859,1.8622,1.8799,1.8924,1.8947,1.8996,1.8972,1.9021,1.9083,1.9092,1.9339,1.9292,1.9323,1.9383,1.9628,1.9636,1.9644,1.9648,1.9659,1.9669,0,0,0,0,0,0,1.8478,1.8598,1.8607,1.8739,1.8821,1.8928,1.8992,1.9006,1.9097,1.9093,1.9151,1.9176,1.9302,1.9356,1.9301,1.9514,1.9482,1.9496,1.9474,1.9486,1.9494,1.9479,1.9296,0,0,0,0,0,1.8491,1.8581,1.8682,1.8789,1.8829,1.8903,1.896,1.899,1.9078,1.9113,1.9184,1.927,1.9367,1.9429,1.9524,1.966,1.9686,1.9717,1.9726,1.9733,1.9745,1.9823,1.9839,1.9673,1.9673,1.9673,0,0,1.8519,1.8595,1.8649,1.8788,1.8855,1.8949,1.8932,1.9032,1.9102,1.9128,1.9253,1.9309,1.9409,1.9541,1.9604,1.959,1.9796,1.9743,1.9747,1.9756,1.9833,1.9848,1.9862,1.9679,1.9678,1.9677,0,0,1.8617,1.8684,1.8781,1.8848,1.895,1.8999,1.9022,1.9128,1.9166,1.9292,1.9314,1.94,1.9565,1.9636,1.9693,1.9821,1.9834,1.9851,1.9897,1.9973,1.9986,1.9997,2.0044,2.006,1.9862,1.9862,1.9862,0,1.8639,1.8779,1.8829,1.8928,1.899,1.9017,1.9118,1.9181,1.9309,1.9351,1.9334,1.9544,1.9613,1.9763,1.9795,1.984,1.987,1.9838,1.9979,1.9992,2.0004,2.0049,2.0067,1.9864,1.9863,1.9863,1.9863,0,1.8802,1.89,1.8966,1.9088,1.9158,1.9257,1.9323,1.9388,1.9413,1.9464,1.9594,1.9678,1.9791,1.9829,1.9855,1.9985,1.9974,1.9967,1.9936,2.002,2.0064,2.0082,1.9866,1.9865,1.9865,1.9864,0,0,1.8898,1.9047,1.9071,1.9128,1.9243,1.932,1.9421,1.9531,1.9586,1.9674,1.9761,1.9902,1.9897,1.9963,1.9997,2.0063,2.0161,2.005,2.0053,2.0068,2.0312,2.0316,2.0335,2.017,2.0174,2.0177,2.0304,0,1.901,1.919,1.9239,1.9392,1.9484,1.9513,1.9602,1.9683,1.9735,1.9822,1.9879,1.9978,1.9964,2.0004,2.0071,2.0135,2.0211,2.0127,2.0254,2.0258,2.0228,2.0358,2.0362,2.0478,2.0321,2.0324,2.0326,0,1.9165,1.9255,1.9417,1.9522,1.9563,1.9641,1.9747,1.9829,1.9923,1.9956,2.003,2.0059,2.0168,2.0131,2.0284,2.0225,2.0281,2.0321,2.0326,2.034,2.0297,2.0376,2.0516,2.0533,2.0353,2.0351,2.0349,0,1.9219,1.9382,1.9501,1.9548,1.9673,1.9728,1.9783,1.9874,1.9938,2.0031,2.0073,2.0178,2.0235,2.0317,2.0374,2.0342,2.0522,2.049,2.0554,2.0553,2.0591,2.0588,2.0742,2.0626,2.0626,2.0625,2.0625,0,1.9339,1.9438,1.9527,1.96,1.9712,1.9768,1.9878,1.9935,2.0016,2.0102,2.0134,2.0214,2.0284,2.0375,2.0421,2.0541,2.0567,2.0598,2.0609,2.0595,2.0591,2.0632,2.0626,2.063,2.0629,2.0628,2.0627,0,1.9419,1.9482,1.9614,1.9722,1.9752,1.983,1.9923,1.9996,2.005,2.0158,2.0187,2.0271,2.038,2.0445,2.0583,2.0614,2.0747,2.0754,2.0715,2.072,2.0781,2.0775,2.0967,2.0996,2.086,2.0861,2.0862,0,1.9491,1.9568,1.9684,1.9744,1.9799,1.9895,1.996,2.0019,2.0086,2.02,2.026,2.0371,2.0462,2.0634,2.0709,2.0815,2.0826,2.0886,2.0842,2.0827,2.0828,2.0823,2.0832,2.0894,2.0895,2.0896,2.0896,0,1.9613,1.9641,1.9733,1.9837,1.9914,1.9999,2.0084,2.0131,2.0205,2.0279,2.039,2.0461,2.0602,2.0712,2.0825,2.0883,2.0904,2.091,2.0931,2.0918,2.0892,2.0908,2.0736,2.0905,2.0904,2.0904,2.0903,2.0903,1.9692,1.9762,1.9856,1.9958,2.0028,2.0107,2.0181,2.0244,2.0337,2.0456,2.0486,2.0603,2.0698,2.0851,2.0913,2.1007,2.0998,2.1027,2.1035,2.1042,2.1044,2.0877,2.1028,2.1028,2.1027,2.1027,2.1027,0,1.9817,1.9879,1.9972,2.009,2.0171,2.0182,2.0277,2.0344,2.0446,2.0532,2.0622,2.0751,2.0858,2.0942,2.1053,2.1112,2.1124,2.1139,2.1136,2.115,2.1045,2.1016,2.1128,2.1128,2.1128,2.1128,2.1128,2.1128,1.9891,2.001,2.005,2.0206,2.0268,2.0382,2.0435,2.0509,2.0578,2.072,2.081,2.0863,2.095,2.1068,2.1167,2.119,2.1229,2.1243,2.1267,2.1168,2.1157,2.1146,2.112,2.1251,2.1251,2.1364,2.1365,2.1366]},{"header":{"parameterUnit":"m.s-1","parameterCategory":1,"la1":30.2991,"la2":30.254,"lo1":-89.0895,"lo2":-89.0444,"dy":0.0017,"dx":0.0017,"nx":28,"ny":28,"refTime":"2024-05-18T03:00:00:Z","depth":0,"parameterNumber":3,"parameterNumberName":"V-component_of_WINDS"},"data":[0,0,0,0,0,0,0,0,0,0,0,0,0,0,0,0,0,0,0,0,0,0,0,0,0,0,0,0,0,0,0,0,0,0,0,0,0,0,0,0,0,0,0,0,0,0,0,0,0,0,0,0,0,0,0,0,0,0,1.8029,1.8029,0,1.802,1.802,1.802,1.7969,1.7967,1.7966,1.7965,1.7956,1.7957,1.7958,0,0,0,0,0,0,0,0,0,0,0,0,0,1.8002,1.8003,1.8029,1.8029,1.8029,1.802,1.802,1.802,1.7969,1.7967,1.7966,1.7964,1.7956,1.7957,1.7958,0,0,0,0,0,0,0,0,0,0,0,0,0,1.8006,1.8003,1.8029,1.8002,1.8,1.802,1.802,1.802,1.7969,1.7967,1.7965,1.7964,1.7956,1.7957,1.7959,1.8004,0,0,1.7963,1.7963,0,0,0,0,0,0,0,0,1.8006,1.8007,1.8006,1.8004,1.8001,1.7994,1.8007,1.8015,1.797,1.7981,1.7965,1.7963,1.797,1.797,1.7973,1.8004,1.8004,1.7963,1.7964,1.7964,1.7965,0,0,0,0,0,0,0,1.8005,1.8007,1.8026,1.8006,1.8003,1.7991,1.7989,1.8009,1.7986,1.798,1.7976,1.7976,1.7969,1.7972,1.7972,1.8003,1.7963,1.7964,1.7965,1.7965,1.8071,1.8073,0,0,0,0,0,0,1.8009,1.8007,1.8026,1.8025,1.7999,1.7993,1.7991,1.7998,1.7986,1.7982,1.7977,1.7973,1.797,1.7971,1.7972,1.8024,1.7964,1.7966,1.7966,1.8069,1.8072,1.8074,0,0,0,0,0,0,1.8008,1.8011,1.8026,1.8015,1.8016,1.7995,1.8003,1.7999,1.8002,1.7984,1.798,1.7984,1.7969,1.797,1.7996,1.8023,1.7966,1.7968,1.8067,1.807,1.8073,1.813,0,0,0,0,0,0,1.8008,1.8011,1.8028,1.8016,1.8017,1.8051,1.8005,1.8,1.8004,1.7999,1.7989,1.7986,1.7967,1.7995,1.7998,1.8024,1.7969,1.8064,1.8068,1.8072,1.8125,1.8134,1.8142,0,0,0,0,0,1.8007,1.8045,1.8029,1.8032,1.8038,1.8053,1.8053,1.8031,1.8007,1.8024,1.8012,1.7986,1.802,1.7998,1.8001,1.8028,1.8063,1.8067,1.8071,1.8122,1.8133,1.8142,0,0,0,0,0,0,1.8061,1.8043,1.8025,1.806,1.8059,1.8044,1.8065,1.8043,1.8048,1.8043,1.8015,1.8014,1.8044,1.8039,1.8015,1.8072,1.8037,1.8042,1.8074,1.8084,1.8092,1.8093,1.797,0,0,0,0,0,1.8077,1.8091,1.8074,1.8107,1.8107,1.8086,1.8092,1.8075,1.8072,1.8071,1.8061,1.8059,1.8069,1.8076,1.8085,1.8124,1.8122,1.8145,1.8153,1.816,1.8165,1.8185,1.8195,1.8088,1.8088,1.8088,0,0,1.8111,1.8102,1.8113,1.8117,1.8114,1.8128,1.8086,1.8103,1.8114,1.8073,1.8098,1.8091,1.8087,1.812,1.8134,1.8117,1.8194,1.8166,1.8171,1.8172,1.8191,1.8201,1.821,1.8091,1.8091,1.809,0,0,1.8179,1.8174,1.82,1.8198,1.8193,1.8179,1.8185,1.8174,1.8168,1.8192,1.8161,1.8174,1.8192,1.819,1.8192,1.8259,1.8235,1.8262,1.8306,1.8326,1.8334,1.8342,1.8365,1.8374,1.8267,1.8268,1.8268,0,1.8221,1.8242,1.8217,1.8236,1.8239,1.8202,1.8229,1.8227,1.8226,1.8229,1.8209,1.823,1.8225,1.8257,1.8274,1.8277,1.8283,1.8263,1.8335,1.8342,1.8349,1.8371,1.838,1.8271,1.827,1.827,1.827,0,1.8293,1.8308,1.833,1.8329,1.8334,1.8357,1.8336,1.8344,1.8327,1.8315,1.834,1.8332,1.8338,1.8345,1.8328,1.8375,1.8364,1.834,1.8304,1.8363,1.8383,1.8391,1.8276,1.8274,1.8273,1.8273,0,0,1.8396,1.838,1.8388,1.8387,1.8379,1.839,1.8411,1.8417,1.8425,1.8425,1.8442,1.8458,1.8435,1.8437,1.842,1.8438,1.8491,1.8411,1.8411,1.8426,1.8542,1.856,1.857,1.8476,1.8477,1.8478,1.8542,0,1.8461,1.8495,1.8473,1.8512,1.8525,1.8491,1.8509,1.8506,1.8496,1.8506,1.8494,1.8506,1.8476,1.8477,1.8493,1.8481,1.8514,1.8476,1.8491,1.8492,1.8493,1.8581,1.86,1.8661,1.855,1.8552,1.8553,0,1.8541,1.8544,1.8584,1.8573,1.8577,1.8594,1.8597,1.8607,1.8603,1.8594,1.8597,1.8575,1.8595,1.856,1.8587,1.8562,1.8567,1.8562,1.8564,1.8564,1.8526,1.8584,1.868,1.8689,1.8565,1.8564,1.8563,0,1.8611,1.8625,1.8651,1.8651,1.8639,1.8651,1.8647,1.8641,1.8646,1.8648,1.8651,1.8657,1.866,1.8664,1.8645,1.8621,1.8674,1.8638,1.8668,1.8668,1.868,1.868,1.8778,1.8684,1.8684,1.8684,1.8684,0,1.8686,1.8712,1.8682,1.8698,1.8725,1.87,1.8728,1.872,1.8715,1.8728,1.8699,1.8713,1.8686,1.8696,1.8681,1.8706,1.8708,1.8701,1.8697,1.8704,1.8704,1.8706,1.8701,1.8686,1.8686,1.8685,1.8685,0,1.8769,1.875,1.8776,1.8762,1.8759,1.878,1.8768,1.8782,1.8769,1.8787,1.879,1.877,1.8781,1.8762,1.8771,1.8761,1.8795,1.8784,1.8797,1.8793,1.8824,1.8821,1.8927,1.8939,1.8837,1.8838,1.8839,0,1.8818,1.8837,1.8825,1.8831,1.8828,1.884,1.8844,1.882,1.8826,1.8822,1.8837,1.8845,1.8851,1.887,1.8857,1.8864,1.8853,1.8889,1.8854,1.886,1.8853,1.8852,1.8854,1.8897,1.8898,1.8899,1.89,0,1.8906,1.8896,1.8903,1.8908,1.8914,1.8916,1.8916,1.8923,1.8898,1.8906,1.8916,1.8921,1.8929,1.8938,1.8942,1.8937,1.8915,1.8911,1.8918,1.8925,1.8932,1.8928,1.8816,1.8909,1.8908,1.8907,1.8907,1.8906,1.8974,1.8988,1.8982,1.8991,1.8989,1.899,1.9002,1.8991,1.8999,1.9004,1.8989,1.9004,1.8999,1.9001,1.8999,1.901,1.8994,1.9004,1.9007,1.901,1.9014,1.893,1.901,1.901,1.901,1.901,1.9009,0,1.906,1.9055,1.9063,1.9064,1.9071,1.9049,1.9048,1.9055,1.9068,1.9065,1.9071,1.9084,1.9092,1.908,1.9086,1.9097,1.9087,1.91,1.9098,1.9098,1.9029,1.9022,1.9108,1.9108,1.9108,1.9108,1.9108,1.9108,1.9106,1.913,1.9119,1.9142,1.9136,1.9149,1.915,1.9151,1.9148,1.9163,1.917,1.9162,1.9155,1.9161,1.9168,1.9164,1.9167,1.9184,1.9176,1.9112,1.9103,1.9093,1.9087,1.9185,1.9185,1.9244,1.9245,1.9245]}]]